"Pseudo-MPEC" for P20JDUC

Created 2018 Oct 12 22:18:05 UT using Find_Orb

Click here for an explanation of pseudo-MPECs

 
 Astrometry: 
     P20JDUC  C2018 10 10FfAstrometry!D`%PsIr6)MaBlUI6\D/S=$Bl(5(!r)F2bP,fBoPF52
     P20JDUC  C2018 10 10]kv8:2N_u'VT$H6mIN!o`=yl)VhR,KD(=^nlwiM-CQ/3EeQH9,qJF52
     P20JDUC  C2018 10 10pl-[`2`*n$BJt,w'))7=(VHPp/Gp3q@xwd8d3-Of'5=bsSj(0lX!F52
     P20JDUC  C2018 10 10YPhQl/)jim(TZx;0By5^r68bUQ(0dXy;JbxnQFP+(jFBj6[bLM%jF52
     P20JDUC KC2018 10 10O4u1D`iCUm_T7Fv)wq)s;?T#k'\60p1A;qd8'Xx[Ni[Ne;Wbfa6'A17
     P20JDUC KC2018 10 10D_rLAb\8sX-EByLTQ-(@BW`7h$O8+0]D(cfjyX=W?brhTJO7DqH*A17
     P20JDUC KC2018 10 10c6-gfELP\q2E7VEIsVB6V:$ed./YJmB`/\V\-h\xD[Gr7C.n]fYtA17
     P20JDUC KC2018 10 10[eT_XvEY`3v\o)%+'#f(u$K)LbJ_dD@ORYbO$A5^.1uWncO#O1y-595
     P20JDUC KC2018 10 106\Yx,c+8l]qT2PO!4]fco4cX=A-NtodVN==mZH+L_W[L-dMun_q(L01
     P20JDUC KC2018 10 10OC6Nq+m(Z0E'jGfp,redacted;w+X^p`ZrTsi6OrjM.?DnfL(PK/595
     P20JDUC KC2018 10 10@LOjYMvk1lQE_r-PH%@ug9?5%F=UKOx0@W]pHHTnZmfgC4FcgW]#L01
     P20JDUC KC2018 10 107)tFTUvRepcH@fp\tg+)es))]J:t'Q#x1WNBD[DdG:Fu3cE(k(1(L01
     P20JDUC KC2018 10 10R%ZWY6/EG]ci[D3yF'EA:a^2`fXBQ:NW=bhPxwuE4^ho]Un]7mX+K88
     P20JDUC KC2018 10 10.=rH]PDijra[B83?33-L!/1JlHq$S%A%'YUKwV;XxSF=AYJm4VE*K88
     P20JDUC KC2018 10 10G!UZZa[6f7jcm+vk9BbZ!fM5F)5P+\Q17egrbl9R/`7+QP'm0(Y7K88
     P20JDUC KC2018 10 11.86250500 59 04.82 -04 25 42.7          18.2 GVNEOCPJ95
     P20JDUC KC2018 10 11.86510900 59 01.20 -04 27 39.5          19.3 GVNEOCPJ95
     P20JDUC KC2018 10 11.86980100 58 54.65 -04 31 09.4          18.9 GVNEOCPJ95
     P20JDUC KC2018 10 12r%t-/YC:k[%2-_5oQN!;58@C(4S0GE\M?i6y3QDH0VUpk$!t%/q=H21
     P20JDUC KC2018 10 12):E=H/emll25(e3/$D@Y:1];+Xn4OxNNov]ZC)0?cuuv_@%3Z6KPH21
     P20JDUC KC2018 10 12vgbD!7B*elZ$,-4%pcTFHTAMBUm+nZm8see6^5@I'T-XfnFEdye2H21
     P20JDUC KC2018 10 12.,:P;2CGZ#:LmSa3VBh\*Hx!mqeG\QUBE_]1(^k_SrS,3@bVby:=H21
     P20JDUC  C2018 10 12G8o/]pEhKAhdYSlqy+Jq80*Ys:urT8sG0B0m806=QX'd1M60Y`'q246
     P20JDUC  C2018 10 12q2*Dp[C(Of8vXHfvTDWrV+.@IHit4t:ThOr1W!QpR0r,L==yMH-m246
     P20JDUC  C2018 10 12fVoVP)*Hx^6M0+2SUc'6I.Sg-inN0KC@U'JX%bnRrJ7^$FA(9E6F246
     P20JDUC  C2018 10 122w'UkUepx+%/^^q,kDW(([)_V1R!!RgxYCi4b:gn@FW$_)0PMg2/246
     P20JDUC  C2018 10 12oHY4'-YfEIU-cvU)v3a[q1C_xR;mUtN///ei)0l8q/4'l0nSldJW246
     P20JDUC  C2018 10 12-cU9%InSwX,t'O#7A;cP)DB:8u`=ccMVBv%vM]83W@c51**N54rW246
     P20JDUC  C2018 10 12(0-hf-+)JX:m.?i5V[Ig!fgJa;_u4qWxXE?e*i=\K5%;E;3*i].P246
     P20JDUC  C2018 10 12yH%gs\?Q[^pf;_)1v.GU#FpAYg%IJhS#6Yj/o0`QHVqcoukNEOCP246

Station data:
(246) Klet Observatory-KLENOT  (N48.863293 E14.288100)  Czech Republic.
   1.06-m KLENOT telescope.
(595) Farra d'Isonzo  (N45.915734 E13.525780)  Italy.  Observers L.
   Bittesini, F. Fabris, E. Pettarin, F. Piani. Measurer E. Pettarin. 0.30-m
   f/4.5 reflector + CCD.
(A17) Guidestar Observatory, Weinheim  (N49.545393 E8.681520)  Germany.
(F52) Pan-STARRS 2, Haleakala  (N20.707384 W156.255910)  US/Hawaii.
(H21) Astronomical Research Observatory, Westfield  (N39.483057 W87.968270)
   US/Illinois. 0.76-m f/3.0 astrograph + CCD.
(J95) Great Shefford  (N51.474969 W1.447003)  UK.  Observer P. Birtwhistle.
   0.40-m f/6.0 Schmidt-Cassegrain + CCD.
(K88) GINOP-KHK, Piszkéstető  (N47.917622 E19.893600)  Hungary.  Observer K.
   Sárneczky. 0.60-m Schmidt + CCD.
(L01) Višnjan Observatory, Tičan  (N45.290900 E13.749300)  Croatia.  Observer
   K. Korlević. 1.0-m f/2.9 reflector + CCD.

Orbital elements:  P20JDUC
   Perihelion 2018 Dec 10.889406 +/- 0.0165 TT = 21:20:44 (JD 2458463.389406)
Epoch 2018 Oct 12.0 TT = JDT 2458403.5   Earth MOID: 0.0057   Ve: 0.0175
M 310.46304 +/- 0.033               Ma: 0.0974                AutoNEOCP
n   0.82714056 +/- 0.000336         Peri.  294.55182 +/- 0.0007
a   1.12395736 +/- 0.000304         Node   196.31434 +/- 0.00012
e   0.5307094 +/- 0.000273          Incl.    5.48697 +/- 0.0037
P   1.19/435.23d           H 26.7   G  0.15   U  7.4  
q 0.52746259 +/- 0.000163    Q 1.72045213 +/- 0.000772
From 30 observations 2018 Oct. 10-12; mean residual 0".47
Residuals in arcseconds: 
181010 F52  .11+  .03+    181010 L01  .07+  .24+    181012 H21  .02-  .10+    
181010 F52  .21+  .18+    181010 L01  .35+  .38+    181012 H21  .09-  .29-    
181010 F52  .33+  .34+    181010 K88  .08-  .39+    181012 246  .37+  .16+    
181010 F52  .28+  .31+    181010 K88  .10-  .77+    181012 246  .08-  1.1-    
181010 A17  .57+  1.3-    181010 K88  .02+  .45+    181012 246  .59-  .31-    
181010 A17  .26-  1.0-    181011 J95  .02+  .10-    181012 246  .30-  .35-    
181010 A17  .50-  .66-    181011 J95  .10-  .32-    181012 246  .93+  .21-    
181010 595  .55+  .72-    181011 J95  .23-  .55+    181012 246  .26-  .55-    
181010 L01  .48-  .24-    181012 H21  .06-  .37+    181012 246  .44+  .09-    
181010 595  .36+  .29+    181012 H21  .12+  .28+    181012 246  .49+  1.4+    

Ephemerides (geocentric):
Date (UTC) HH   RA              Dec         delta   r     elong  mag " sig PA
---- -- -- --  -------------   -----------  ------ ------ -----  --- ---- ---
2018 10 12 22  00 12 49.990   -27 56 32.10  .01012 1.0059 141.8 18.3  .49 170
2018 10 12 23  00 09 04.597   -29 32 50.94  .00988 1.0055 140.0 18.3  .51 171
2018 10 13 00  00 05 00.810   -31 13 15.28  .00966 1.0051 138.1 18.3  .52 171
2018 10 13 01  00 00 36.453   -32 57 43.94  .00945 1.0047 136.1 18.3  .53 171
2018 10 13 02  23 55 49.029   -34 46 12.14  .00925 1.0043 134.0 18.3  .53 172
2018 10 13 03  23 50 35.666   -36 38 30.76  .00906 1.0039 131.8 18.3  .54 172
2018 10 13 04  23 44 53.060   -38 34 25.48  .00889 1.0035 129.5 18.4  .55 173
2018 10 13 05  23 38 37.404   -40 33 35.90  .00873 1.0031 127.2 18.4  .55 173
2018 10 13 06  23 31 44.323   -42 35 34.64  .00859 1.0027 124.8 18.4  .55 173
2018 10 13 07  23 24 08.797   -44 39 46.41  .00846 1.0023 122.2 18.5  .55 174
2018 10 13 08  23 15 45.097   -46 45 27.19  .00834 1.0020 119.7 18.5  .54 174
2018 10 13 09  23 06 26.739   -48 51 43.47  .00825 1.0016 117.0 18.6  .53 174
2018 10 13 10  22 56 06.488   -50 57 31.72  .00817 1.0012 114.3 18.6  .52 174
2018 10 13 11  22 44 36.431   -53 01 38.02  .00811 1.0008 111.6 18.7  .50 174
2018 10 13 12  22 31 48.199   -55 02 38.13  .00807 1.0004 108.8 18.8  .49 174
2018 10 13 13  22 17 33.391   -56 58 58.02  .00805 1.0000 106.0 18.8  .47 174
2018 10 13 14  22 01 44.307   -58 48 55.26  .00804 0.9996 103.2 18.9  .45 174
2018 10 13 15  21 44 15.066   -60 30 41.36  .00806 0.9992 100.3 19.0  .43 173
2018 10 13 16  21 25 03.148   -62 02 25.79  .00809 0.9988  97.5 19.1  .41 172
2018 10 13 17  21 04 11.242   -63 22 21.85  .00814 0.9984  94.8 19.3  .39 171
2018 10 13 18  20 41 49.054   -64 28 54.64  .00822 0.9980  92.1 19.4  .37 170
2018 10 13 19  20 18 14.455   -65 20 50.41  .00830 0.9976  89.4 19.5  .36 168
2018 10 13 20  19 53 53.224   -65 57 25.95  .00841 0.9972  86.8 19.7  .36 166
2018 10 13 21  19 29 16.912   -66 18 35.47  .00853 0.9968  84.2 19.8  .36 164
2018 10 13 22  19 04 59.056   -66 24 52.67  .00867 0.9964  81.8 19.9  .37 162
2018 10 13 23  18 41 30.770   -66 17 26.80  .00883 0.9960  79.4 20.1  .38 161
2018 10 14 00  18 19 17.095   -65 57 53.66  .00899 0.9956  77.1 20.3  .39 160
2018 10 14 01  17 58 35.053   -65 28 04.02  .00918 0.9952  74.9 20.4  .41 159
2018 10 14 02  17 39 33.567   -64 49 52.43  .00937 0.9948  72.7 20.6  .43 158
2018 10 14 03  17 22 14.708   -64 05 08.36  .00958 0.9944  70.7 20.7  .45 158
2018 10 14 04  17 06 35.532   -63 15 30.64  .00980 0.9940  68.7 20.9  .47 158
2018 10 14 05  16 52 29.909   -62 22 24.66  .01002 0.9937  66.9 21.1  .50 157
2018 10 14 06  16 39 50.025   -61 27 01.80  .01026 0.9933  65.1 21.2  .52 157
2018 10 14 07  16 28 27.454   -60 30 20.22  .01051 0.9929  63.4 21.4  .54 157
2018 10 14 08  16 18 13.857   -59 33 06.28  .01077 0.9925  61.8 21.6  .56 158
2018 10 14 09  16 09 01.385   -58 35 56.28  .01103 0.9921  60.2 21.7  .58 158
2018 10 14 10  16 00 42.874   -57 39 18.12  .01130 0.9917  58.7 21??  .60 158
2018 10 14 11  15 53 11.920   -56 43 32.84  .01158 0.9913  57.3 22??  .62 158
2018 10 14 12  15 46 22.869   -55 48 55.96  .01186 0.9909  56.0 22??  .64 158
2018 10 14 13  15 40 10.767   -54 55 38.62  .01215 0.9905  54.7 22??  .65 158
2018 10 14 14  15 34 31.302   -54 03 48.45  .01245 0.9901  53.5 22??  .67 158
2018 10 14 15  15 29 20.721   -53 13 30.41  .01275 .98968  52.3 22??  .68 158
2018 10 14 16  15 24 35.766   -52 24 47.29  .01306 .98928  51.2 22??  .70 158
2018 10 14 17  15 20 13.606   -51 37 40.30  .01337 .98889  50.2 23??  .71 158
2018 10 14 18  15 16 11.779   -50 52 09.37  .01368 .98849  49.1 23??  .72 158
2018 10 14 19  15 12 28.140   -50 08 13.50  .01400 .98809  48.2 23??  .73 158
2018 10 14 20  15 09 00.816   -49 25 50.99  .01432 .98769  47.2 23??  .74 158
2018 10 14 21  15 05 48.167   -48 44 59.64  .01464 .98730  46.3 23??  .75 158